CRC

Crooked River Challenge - Loft fly

Station: Inventory - T Race

Distance: 0.1 Miles    

Release: 14-Aug-2019 06:35

Weather Release:    Arrival:

Wind at Release:     Wind at Arrival:

Temp at Release: °    Temp at Arrival: °

Lofts: 145

Birds: 637

Clocked: 648

Good Luck to Everyone!
Drops Pos Breeder Pigeon Name Color Sex Ent Arrival Speed To Win Eligible OpBOpC
1 Kolvenbag & Son - PA 1329-IF19-KOLV BC C 1 08:20:30.53 1.668 00:00:00 Yes
1 Keyways - OR 3193-AU19-ARPU 1906 X 1082 BC C 1 08:20:30.57 1.668 00:00:00 Yes
1 Da-Dong - WI 1624-AU19-RAC 80-364 BB H 1 08:20:31.64 1.668 00:00:00 Yes
4 P N W Challenge - ID 1905-AU19-PAPA “PAIR #J17” BB H 1 08:20:33.94 1.667 00:00:04 Yes
5 Morelia Loft - TX 9113-AU19-PDP BB H 1 08:20:42.50 1.665 00:00:11 Yes
5 Me Fui Vega Loft - FL 0062-AU19-VEGA CHOC H 1 08:20:42.78 1.665 00:00:11 Yes
7 Genesis Syndicate Loft - AZ 0714-AU19-GEN BBSP H 1 08:20:57.59 1.661 00:00:27 Yes
7 Emerson & Donnelly - SC 0208-AU19-MERL BBWF C 1 08:20:58.24 1.661 00:00:27 Yes
9 Peach Classic - GA 19032-AU19-PCL Astoria BB H 1 08:21:00.66 1.660 00:00:31 Yes
9 Cloux Loft - CO 9702-AU19-FH BB H 1 08:21:00.68 1.660 00:00:31 Yes
9 Onlydaybird Syndicate - NV 14509-AU19-AA BB H 1 08:21:00.70 1.660 00:00:31 Lost
9 A-Lo Loft/Nemelka - UT 2883-AU19-FOYS ☯️Gangstaoflovex7010 DC H 1 08:21:00.92 1.660 00:00:31 Yes
9 Anshutz Family Lofts - WA 4006-AU19-LKC BC H 1 08:21:01.49 1.660 00:00:31 Yes
9 Smith R.P.L. - UT 4569-AU19-SMIT BB H 1 08:21:01.78 1.660 00:00:31 Yes
9 Highland Loft - NY 9138-AU19-DZ BC H 1 08:21:02.81 1.660 00:00:31 Lost
9 Andy Owen - GA 1081-AU19-CGA BB H 1 08:21:03.10 1.660 00:00:31 Lost
17 Q-Ba Family Loft - TX 0720-AU19-SAIN “Blade-Diablo-Jelle” BB H 1 08:21:04.12 1.659 00:00:34 Lost
17 Ringor Loft - CA 4695-AU19-JEDD BC H 1 08:21:04.13 1.659 00:00:34 Yes
17 Liqing Ni Loft - NY 0005-AU19-YANG YANG-5🦄🦄🦄 BB H 1 08:21:04.15 1.659 00:00:34 Yes
17 Tian Loft - FL 15663-AU19-ARPU BB H 1 08:21:04.18 1.659 00:00:34 Yes
17 Bieche-Stevenson - CA 9106-AU19-BIEC BC H 1 08:21:04.20 1.659 00:00:34 Yes
17 Poorhouse Road Loft - VA 29708-AU19-ARPU BB H 1 08:21:04.54 1.659 00:00:34 Lost
17 Steven Loft - TX 0015-AU19-YE BBWF C 1 08:21:06.60 1.659 00:00:34 Yes
17 Amer Loft - GA 0212-IF19-AFL BB C 1 08:21:06.62 1.659 00:00:34 Yes
17 Pl Abasolo Famloft - IL 0513-AU19-LCC 🇵🇭 airwolf 513 BB H 1 08:21:06.90 1.659 00:00:34 Lost
26 Sierra Ranch - CA 0913-AU19-SIER River Mist BB H 1 08:21:07.94 1.658 00:00:38 Yes
26 Ganus Family Loft - IN 0607-AU19-GFL HOME RUN BB H 1 08:21:08.34 1.658 00:00:38 Yes
26 Kamp - WA 4200-AU19-LKC BB C 1 08:21:09.36 1.658 00:00:38 Lost
26 Paul Yahiku - OR 19020-AU19-YAHI 4634 x 4597 BB H 1 08:21:09.41 1.658 00:00:38 Yes
26 A P C Loft - TX 19019-AU19-APC BB H 1 08:21:09.87 1.658 00:00:38 Yes
26 Tian Loft - FL 20888-AU19-ARPU BB H 2 08:21:10.24 1.658 00:00:38 Yes
26 Columba Loft - GA 9293-AU19-LYNC 8192 X 7177 BC H 1 08:21:10.78 1.658 00:00:38 Yes
33 A Brother Loft - AL 53869-AU19-ARPU BB H 1 08:21:11.31 1.657 00:00:42 Yes
33 Charlie Barbiere - NJ 3302-IF19-BSC PRIMUS BBWF C 1 08:21:12.57 1.657 00:00:42 Lost
33 Q-Ba Family Loft - TX 0742-AU19-SAIN “T-777-Kannibaal 42” BC H 2 08:21:13.60 1.657 00:00:42 Yes
33 98 M J - PA 0060-AU19-AJ BBWF H 1 08:21:13.62 1.657 00:00:42 Yes
33 Great Wall - VA 8535-AU19-TONY BC H 1 08:21:13.64 1.657 00:00:42 Yes
33 Greek Connection - SC 1231-AU19-GRK 375x303 BB C 1 08:21:13.66 1.657 00:00:42 Yes
33 Bryan Maier - PA 0320-IF19-MAIE RDSP H 1 08:21:14.06 1.657 00:00:42 Lost
33 Linda Loft - PA 0688-IF19-LU 347-Johnny Girl BBWF H 1 08:21:14.53 1.657 00:00:42 Yes
41 385 Connection - SC 90001-AU19-SCO 2890/50014 BC H 1 08:21:15.54 1.656 00:00:46 Lost
41 A-Lo Loft/Nemelka - UT 2888-AU19-FOYS ☯️Gangstaoflovex7010 BB H 2 08:21:15.58 1.656 00:00:46 Yes
41 Cortes Family Loft - AZ 1914-AU19-CORT Arizona Wildcat 2 BB H 1 08:21:15.61 1.656 00:00:46 Yes
41 Y Mtn Loft - TN 26743-AU19-YMTN BB C 1 08:21:17.31 1.656 00:00:46 Yes
41 Baptista - IL 0083-AU19-FAMP BC H 1 08:21:18.34 1.656 00:00:46 Yes
41 Tex-Mex Loft - TX 0104-AU19-TXMX Barbarosa RD C 1 08:21:18.36 1.656 00:00:46 Yes
47 Zheng Family Loft - NY 0993-AU19-ZFL LaFerrari 993 BB H 1 08:21:18.84 1.655 00:00:50 Yes
47 98 M J - PA 0057-AU19-AJ WGZ H 2 08:21:19.89 1.655 00:00:50 Yes
47 Morningside Racing Loft - TX 1021-AU19-MSRL 7013X10169 RR C 1 08:21:19.91 1.655 00:00:50 Yes
47 Emmalyn & Carelyn Loft - CA 0016-AU19-CEYX BB H 1 08:21:19.94 1.655 00:00:50 Lost
47 Peters - GA 0007-AU19-PETE PETERS -1 BBWF C 1 08:21:21.05 1.655 00:00:50 Yes
47 Linda Loft - PA 0692-IF19-LU 637-Lu-542 BBWF H 2 08:21:22.11 1.655 00:00:50 Yes
53 98 M J - PA 0009-AU19-AJ BB C 3 08:21:23.58 1.654 00:00:54 Yes
53 Eastern Pearl Loft - VA 0633-AU19-EPL 🈚️量633=042x240 BB H 1 08:21:23.59 1.654 00:00:54 Yes
53 Wild Wings Loft - MA 12939-AU19-JEDD RUBBLE BB C 1 08:21:23.81 1.654 00:00:54 Yes
53 Drama Queen Loft - TX 0987-AU19-GCI BB H 1 08:21:24.83 1.654 00:00:54 Yes
53 Pleasant Task Farm - PA 19000-AU19-PTF 215xDaug528 BBWF C 1 08:21:24.86 1.654 00:00:54 Yes
53 Brooklyn Loft - NY 0484-IF19-BQC BB H 1 08:21:25.16 1.654 00:00:54 Yes
53 Pleasant Task Farm - PA 19049-AU19-PTF 528xJOSEY BB H 2 08:21:26.20 1.654 00:00:54 Yes
60 Hi-Chi Loft - CA 1448-AU19-WSJ BB H 1 08:21:26.90 1.653 00:00:57 Yes
60 Liqing Ni Loft - NY 0003-AU19-YANG YANG-3🦄🦄🦄 BCSP H 2 08:21:27.95 1.653 00:00:57 Yes
60 Wise Loft - IL 4102-AU19-CHIC BB H 1 08:21:28.07 1.653 00:00:57 Yes
60 ** J-Ireneo Loft ** - CA 0416-AU19-JIR DCSP H 1 08:21:28.53 1.653 00:00:57 Yes
60 Torres Family Loft - TX 0021-AU19-GTNS GTNS-ANGELLA BB H 1 08:21:29.57 1.653 00:00:57 Yes
60 Morningside Racing Loft - TX 1020-AU19-MSRL 7013X10169 RRWF H 2 08:21:29.67 1.653 00:00:57 Yes
66 Fall Creek Ranch - OR 29004-AU19-ARPU BCSP H 1 08:21:30.69 1.652 00:01:01 Yes
66 Powerstroke Loft - UT 0500-AU19-PS BBWF C 1 08:21:30.71 1.652 00:01:01 Yes
66 Eastern Pearl Loft - VA 0532-AU19-EPL 🈚️量532=298x006 BC C 2 08:21:30.75 1.652 00:01:01 Yes
66 Jeff Earthman - NV 1974-AU19-JEDD 454-1649 BCWF C 1 08:21:31.12 1.652 00:01:01 Lost
66 A P C Loft - TX 19064-AU19-APC BBSP H 2 08:21:32.17 1.652 00:01:01 Yes
66 G & L Loft - OR 0514-AU19-WPC BC C 1 08:21:32.19 1.652 00:01:01 Yes
66 Wolf Den & Family Loft - IL 0007-AU19-WOLF GZ H 1 08:21:32.65 1.652 00:01:01 Yes
66 - Blue Giligit Loft - - CA 3753-AU19-JEDD AVERY MEGAN PICK BIRD BBWF C 1 08:21:33.67 1.652 00:01:01 Yes
66 P N W Challenge - ID 0508-AU19-IDA “PAIR #J4” BB H 2 08:21:33.69 1.652 00:01:01 Yes
66 Roger Teeters - WA 4610-AU19-LKC BB H 1 08:21:33.73 1.652 00:01:01 Lost
76 S & J Platt - OR 18207-AU19-PLAT BBWF H 1 08:21:34.52 1.651 00:01:05 Yes
76 Sam Haslem - UT 0018-AU19-SAM BBWF C 1 08:21:35.53 1.651 00:01:05 Yes
76 Adam Hajduga - IL 0982-AU19-HAJD BB C 1 08:21:35.56 1.651 00:01:05 Lost
76 Amer Loft - GA 0185-IF19-AFL BB C 2 08:21:35.95 1.651 00:01:05 Yes
76 Drama Queen Loft - TX 0910-AU19-GCI RD C 2 08:21:36.49 1.651 00:01:05 Yes
81 Smith R.P.L. - UT 4525-AU19-SMIT BB C 2 08:21:38.20 1.650 00:01:09 Yes
81 Q-Ba Family Loft - TX 0743-AU19-SAIN “Meteor-De46 Blood 1” BB H 3 08:21:39.22 1.650 00:01:09 Lost
81 Me Fui Vega Loft - FL 0069-AU19-VEGA BB C 3 08:21:39.25 1.650 00:01:09 Yes
81 A Brother Loft - AL 53919-AU19-ARPU BB H 2 08:21:39.47 1.650 00:01:09 Yes
81 Sunshine Loft 2 - SC 0185-AU19-PAK Hillary /Roza BCWF H 1 08:21:40.50 1.650 00:01:09 Yes
81 Me Fui Vega Loft - FL 0084-AU19-VEGA BLK H 2 08:21:40.53 1.650 00:01:09 Yes
81 Silicon Valley Syndicates - CA 19026-AU19-SVS BB H 1 08:21:40.54 1.650 00:01:09 Yes
88 Any Given Day Loft - TX 19093-AU19-ANYG BCWF H 1 08:21:42.29 1.649 00:01:13 Lost
88 Iditarod Loft - MT 17258-AU19-AA BC H 1 08:21:43.33 1.649 00:01:13 Yes
88 Smith R.P.L. - UT 4524-AU19-SMIT BC H 3 08:21:43.36 1.649 00:01:13 Yes
88 Pleasant Task Farm - PA 19024-AU19-PTF 69x57 BB C 3 08:21:43.39 1.649 00:01:13 Lost
92 Horse Heaven Hills - OR 25309-AU19-AA BB H 1 08:21:46.52 1.648 00:01:17 Lost
92 Adam Hajduga - IL 7865-AU19-ARPU BC H 2 08:21:47.55 1.648 00:01:17 Lost
92 Eastern Pearl Loft - VA 0531-AU19-EPL 🈚️量531=298x006 BC H 3 08:21:47.80 1.648 00:01:17 Yes
92 Peters - GA 0022-AU19-PETE PETERS -5 DC H 2 08:21:49.56 1.648 00:01:17 Yes
96 Balikbayan Express - WA 0916-AU19-GSC BCWF H 1 08:21:51.06 1.647 00:01:21 Lost
96 A P C Loft - TX 19152-AU19-APC BBSP C 3 08:21:52.27 1.647 00:01:21 Lost
96 Cortes Family Loft - AZ 1913-AU19-CORT Arizona Wildcat 1 BBSP C 2 08:21:52.63 1.647 00:01:21 Yes
99 Andy Skwiat - IN 0044-AU19-ANDY 632 x 829 BBWF C 1 08:21:53.67 1.646 00:01:25 Yes
99 Irishsyndicatelofts - AZ 0754-IF19-IRIS BC H 1 08:21:54.36 1.646 00:01:25 Yes

There are 537 bird records

Note: These Race Results are unofficial and subject to change until verified by the Race Committee and declared final.